Tracking 29892 objects as of 21-Nov-2024
HD Live streaming from Space Station
objects crossing your sky now

INTELSAT 705

Track INTELSAT 705 now!
INTELSAT 705 is classified as:


NORAD ID: 23528
Int'l Code: 1995-013A
Perigee: 36,079.9 km
Apogee: 36,242.5 km
Inclination: 10.7 °
Period: 1,454.9 minutes
Semi major axis: 42532 km
RCS: 12.1482 m2 (large)
Launch date: March 22, 1995
Source: International Telecommunications Satellite Organization (ITSO)
Launch site: AIR FORCE EASTERN TEST RANGE (AFETR)

42 C-band, 24 Ku-band; broadcasting, business services, direct-to-home TV broadcasting, telecommunications, VSATnetworks; Atlantic Ocean region.
Your satellite tracking list
Your tracking list is empty




NASA's NSSDC Master Catalog

Two Line Element Set (TLE):
1 23528U 95013A   24325.70735666 -.00000267  00000-0  00000-0 0  9990
2 23528  10.6581  42.2059 0019111 107.7093 298.3179  0.98975089107861
Source of the keplerian elements: AFSPC